Time,TemperatureF,DewpointF,PressureIn,WindDirection,WindDirectionDegrees,WindSpeedMPH,WindSpeedGustMPH,Humidity,HourlyPrecipIn,Conditions,Clouds,dailyrainin,SoftwareType,DateUTC
2013-05-06 00:01:00,48.0,47.0,-100.00,South,176,5.0,7.0,96,-99.99,,,-99.99,,2013-05-06 07:01:00,
2013-05-06 00:11:00,48.0,47.0,-100.00,South,181,5.0,11.0,96,-99.99,,,-99.99,,2013-05-06 07:11:00,
2013-05-06 00:22:00,48.0,47.0,-100.00,South,178,7.0,11.0,96,-99.99,,,-99.99,,2013-05-06 07:22:00,
2013-05-06 00:31:00,48.0,47.0,-100.00,South,170,7.0,14.0,96,-99.99,,,-99.99,,2013-05-06 07:31:00,
2013-05-06 00:42:00,48.0,47.0,-100.00,South,181,8.0,11.0,96,-99.99,,,-99.99,,2013-05-06 07:42:00,
2013-05-06 00:52:00,48.0,47.0,-100.00,South,176,8.0,12.0,97,-99.99,,,-99.99,,2013-05-06 07:52:00,
2013-05-06 01:01:00,48.0,47.0,-100.00,South,176,8.0,12.0,97,-99.99,,,-99.99,,2013-05-06 08:01:00,
2013-05-06 01:12:00,48.0,47.0,-100.00,South,179,8.0,13.0,97,-99.99,,,-99.99,,2013-05-06 08:12:00,
2013-05-06 01:22:00,48.0,47.0,-100.00,South,174,8.0,11.0,96,-99.99,,,-99.99,,2013-05-06 08:22:00,
2013-05-06 01:31:00,48.0,47.0,-100.00,South,177,7.0,12.0,96,-99.99,,,-99.99,,2013-05-06 08:31:00,
2013-05-06 01:41:00,48.0,47.0,-100.00,SSE,167,8.0,13.0,96,-99.99,,,-99.99,,2013-05-06 08:41:00,
2013-05-06 01:52:00,48.0,47.0,-100.00,South,173,9.0,13.0,95,-99.99,,,-99.99,,2013-05-06 08:52:00,
2013-05-06 02:01:00,48.0,47.0,-100.00,South,170,8.0,11.0,95,-99.99,,,-99.99,,2013-05-06 09:01:00,
2013-05-06 02:11:00,48.0,47.0,-100.00,South,183,8.0,9.0,95,-99.99,,,-99.99,,2013-05-06 09:11:00,
2013-05-06 02:22:00,48.0,47.0,-100.00,South,179,6.0,8.0,95,-99.99,,,-99.99,,2013-05-06 09:22:00,
2013-05-06 02:32:00,48.0,47.0,-100.00,South,180,5.0,9.0,96,-99.99,,,-99.99,,2013-05-06 09:32:00,
2013-05-06 02:42:00,48.0,47.0,-100.00,South,178,6.0,9.0,97,-99.99,,,-99.99,,2013-05-06 09:42:00,
2013-05-06 02:53:00,48.0,47.0,-100.00,South,187,6.0,10.0,97,-99.99,,,-99.99,,2013-05-06 09:53:00,
2013-05-06 03:02:00,48.0,47.0,-100.00,South,187,6.0,10.0,97,-99.99,,,-99.99,,2013-05-06 10:02:00,
2013-05-06 03:12:00,48.0,47.0,-100.00,South,179,7.0,8.0,98,-99.99,,,-99.99,,2013-05-06 10:12:00,
2013-05-06 03:22:00,48.0,47.0,-100.00,South,172,5.0,7.0,98,-99.99,,,-99.99,,2013-05-06 10:22:00,
2013-05-06 03:32:00,48.0,47.0,-100.00,South,177,4.0,8.0,98,-99.99,,,-99.99,,2013-05-06 10:32:00,
2013-05-06 03:41:00,48.0,47.0,-100.00,South,188,4.0,9.0,98,-99.99,,,-99.99,,2013-05-06 10:41:00,
2013-05-06 03:52:00,48.0,48.0,-100.00,South,176,6.0,10.0,99,-99.99,,,-99.99,,2013-05-06 10:52:00,
2013-05-06 04:02:00,48.0,48.0,-100.00,South,181,7.0,11.0,99,-99.99,,,-99.99,,2013-05-06 11:02:00,
2013-05-06 04:11:00,48.0,48.0,-100.00,South,175,7.0,13.0,99,-99.99,,,-99.99,,2013-05-06 11:11:00,
2013-05-06 04:22:00,48.0,48.0,-100.00,SSE,163,8.0,13.0,99,-99.99,,,-99.99,,2013-05-06 11:22:00,
2013-05-06 04:31:00,48.0,48.0,-100.00,SSE,165,9.0,15.0,99,-99.99,,,-99.99,,2013-05-06 11:31:00,
2013-05-06 04:42:00,48.0,48.0,-100.00,SSE,168,10.0,16.0,99,-99.99,,,-99.99,,2013-05-06 11:42:00,
2013-05-06 04:52:00,48.0,48.0,-100.00,South,171,11.0,13.0,99,-99.99,,,-99.99,,2013-05-06 11:52:00,
2013-05-06 05:01:00,48.0,48.0,-100.00,SSE,167,9.0,12.0,99,-99.99,,,-99.99,,2013-05-06 12:01:00,
2013-05-06 05:12:00,48.0,48.0,-100.00,South,176,9.0,12.0,99,-99.99,,,-99.99,,2013-05-06 12:12:00,
2013-05-06 05:21:00,48.0,48.0,-100.00,South,179,8.0,13.0,99,-99.99,,,-99.99,,2013-05-06 12:21:00,
2013-05-06 05:31:00,48.0,48.0,-100.00,South,174,9.0,11.0,99,-99.99,,,-99.99,,2013-05-06 12:31:00,
2013-05-06 05:41:00,48.0,48.0,-100.00,South,174,9.0,11.0,99,-99.99,,,-99.99,,2013-05-06 12:41:00,
2013-05-06 05:50:00,48.0,48.0,-100.00,South,181,6.0,11.0,99,-99.99,,,-99.99,,2013-05-06 12:50:00,
2013-05-06 05:51:00,48.0,48.0,-100.00,South,181,8.0,12.0,99,-99.99,,,-99.99,,2013-05-06 12:51:00,
2013-05-06 06:01:00,48.0,48.0,-100.00,South,175,8.0,11.0,99,-99.99,,,-99.99,,2013-05-06 13:01:00,
2013-05-06 06:11:00,48.0,48.0,-100.00,South,182,7.0,11.0,99,-99.99,,,-99.99,,2013-05-06 13:11:00,
2013-05-06 06:21:00,48.0,48.0,-100.00,South,181,6.0,11.0,99,-99.99,,,-99.99,,2013-05-06 13:21:00,
2013-05-06 06:31:00,48.0,48.0,-100.00,South,181,6.0,11.0,99,-99.99,,,-99.99,,2013-05-06 13:31:00,
2013-05-06 06:42:00,48.0,48.0,-100.00,South,181,6.0,11.0,99,-99.99,,,-99.99,,2013-05-06 13:42:00,
2013-05-06 07:01:00,48.0,48.0,-100.00,SSW,195,4.0,12.0,99,-99.99,,,-99.99,,2013-05-06 14:01:00,
2013-05-06 07:11:00,48.0,48.0,-100.00,SSW,210,6.0,11.0,99,-99.99,,,-99.99,,2013-05-06 14:11:00,
2013-05-06 07:21:00,48.0,48.0,-100.00,SSW,211,5.0,7.0,99,-99.99,,,-99.99,,2013-05-06 14:21:00,
2013-05-06 07:32:00,49.0,49.0,-100.00,West,274,4.0,6.0,99,-99.99,,,-99.99,,2013-05-06 14:32:00,
2013-05-06 07:42:00,48.0,48.0,-100.00,WSW,252,1.0,4.0,99,-99.99,,,-99.99,,2013-05-06 14:42:00,
2013-05-06 07:51:00,49.0,49.0,-100.00,SW,227,2.0,4.0,99,-99.99,,,-99.99,,2013-05-06 14:51:00,
2013-05-06 08:01:00,49.0,49.0,-100.00,West,260,2.0,4.0,99,-99.99,,,-99.99,,2013-05-06 15:01:00,
2013-05-06 08:11:00,49.0,49.0,-100.00,WSW,247,1.0,5.0,99,-99.99,,,-99.99,,2013-05-06 15:11:00,
2013-05-06 08:21:00,49.0,49.0,-100.00,WSW,251,1.0,6.0,99,-99.99,,,-99.99,,2013-05-06 15:21:00,
2013-05-06 08:33:00,49.0,49.0,-100.00,WSW,242,3.0,7.0,99,-99.99,,,-99.99,,2013-05-06 15:33:00,
2013-05-06 08:42:00,49.0,49.0,-100.00,SW,234,3.0,5.0,99,-99.99,,,-99.99,,2013-05-06 15:42:00,
2013-05-06 08:53:00,49.0,49.0,-100.00,WSW,248,2.0,5.0,99,-99.99,,,-99.99,,2013-05-06 15:53:00,
2013-05-06 09:02:00,49.0,49.0,-100.00,West,262,2.0,6.0,99,-99.99,,,-99.99,,2013-05-06 16:02:00,
2013-05-06 09:13:00,49.0,49.0,-100.00,WNW,303,3.0,6.0,99,-99.99,,,-99.99,,2013-05-06 16:13:00,
2013-05-06 09:23:00,49.0,49.0,-100.00,WNW,289,3.0,6.0,99,-99.99,,,-99.99,,2013-05-06 16:23:00,
2013-05-06 09:32:00,49.0,49.0,-100.00,WSW,256,3.0,5.0,99,-99.99,,,-99.99,,2013-05-06 16:32:00,
2013-05-06 09:41:00,49.0,49.0,-100.00,SSW,213,3.0,8.0,99,-99.99,,,-99.99,,2013-05-06 16:41:00,
2013-05-06 09:52:00,50.0,50.0,-100.00,SSW,193,3.0,11.0,99,-99.99,,,-99.99,,2013-05-06 16:52:00,
2013-05-06 10:02:00,50.0,50.0,-100.00,SSW,199,7.0,11.0,99,-99.99,,,-99.99,,2013-05-06 17:02:00,
2013-05-06 10:12:00,50.0,50.0,-100.00,SSW,202,6.0,10.0,99,-99.99,,,-99.99,,2013-05-06 17:12:00,
2013-05-06 10:23:00,50.0,50.0,-100.00,South,181,5.0,11.0,99,-99.99,,,-99.99,,2013-05-06 17:23:00,
2013-05-06 10:31:00,50.0,50.0,-100.00,South,181,5.0,11.0,99,-99.99,,,-99.99,,2013-05-06 17:31:00,
2013-05-06 10:42:00,50.0,50.0,-100.00,South,180,5.0,14.0,99,-99.99,,,-99.99,,2013-05-06 17:42:00,
2013-05-06 10:52:00,50.0,50.0,-100.00,South,182,7.0,14.0,99,-99.99,,,-99.99,,2013-05-06 17:52:00,
2013-05-06 11:01:00,50.0,50.0,-100.00,South,171,9.0,11.0,99,-99.99,,,-99.99,,2013-05-06 18:01:00,
2013-05-06 11:12:00,50.0,50.0,-100.00,South,172,7.0,13.0,99,-99.99,,,-99.99,,2013-05-06 18:12:00,
2013-05-06 11:21:00,50.0,50.0,-100.00,South,172,9.0,13.0,99,-99.99,,,-99.99,,2013-05-06 18:21:00,
2013-05-06 11:31:00,50.0,50.0,-100.00,South,172,9.0,13.0,99,-99.99,,,-99.99,,2013-05-06 18:31:00,
2013-05-06 11:43:00,51.0,51.0,-100.00,South,173,9.0,12.0,99,-99.99,,,-99.99,,2013-05-06 18:43:00,
2013-05-06 11:52:00,51.0,51.0,-100.00,South,177,8.0,15.0,99,-99.99,,,-99.99,,2013-05-06 18:52:00,
2013-05-06 12:01:00,51.0,51.0,-100.00,South,170,9.0,18.0,99,-99.99,,,-99.99,,2013-05-06 19:01:00,
2013-05-06 12:11:00,50.0,50.0,-100.00,South,175,11.0,18.0,99,-99.99,,,-99.99,,2013-05-06 19:11:00,
2013-05-06 12:22:00,50.0,50.0,-100.00,SSE,164,11.0,16.0,99,-99.99,,,-99.99,,2013-05-06 19:22:00,
2013-05-06 12:32:00,50.0,49.0,-100.00,South,171,9.0,17.0,98,-99.99,,,-99.99,,2013-05-06 19:32:00,
2013-05-06 12:41:00,50.0,49.0,-100.00,South,170,11.0,18.0,98,-99.99,,,-99.99,,2013-05-06 19:41:00,
2013-05-06 12:52:00,50.0,49.0,-100.00,South,174,11.0,13.0,98,-99.99,,,-99.99,,2013-05-06 19:52:00,
2013-05-06 13:01:00,51.0,50.0,-100.00,South,177,9.0,15.0,98,-99.99,,,-99.99,,2013-05-06 20:01:00,
2013-05-06 13:11:00,51.0,50.0,-100.00,South,182,10.0,13.0,98,-99.99,,,-99.99,,2013-05-06 20:11:00,
2013-05-06 13:21:00,51.0,50.0,-100.00,South,174,8.0,15.0,98,-99.99,,,-99.99,,2013-05-06 20:21:00,
2013-05-06 13:32:00,51.0,50.0,-100.00,South,174,9.0,14.0,98,-99.99,,,-99.99,,2013-05-06 20:32:00,
2013-05-06 13:41:00,51.0,50.0,-100.00,South,174,10.0,17.0,98,-99.99,,,-99.99,,2013-05-06 20:41:00,
2013-05-06 13:52:00,51.0,50.0,-100.00,South,178,9.0,16.0,98,-99.99,,,-99.99,,2013-05-06 20:52:00,
2013-05-06 14:01:00,51.0,50.0,-100.00,South,178,9.0,16.0,98,-99.99,,,-99.99,,2013-05-06 21:01:00,
2013-05-06 14:11:00,50.0,50.0,-100.00,South,174,12.0,20.0,99,-99.99,,,-99.99,,2013-05-06 21:11:00,
2013-05-06 14:21:00,51.0,51.0,-100.00,South,173,12.0,16.0,99,-99.99,,,-99.99,,2013-05-06 21:21:00,
2013-05-06 14:32:00,51.0,51.0,-100.00,South,185,10.0,17.0,99,-99.99,,,-99.99,,2013-05-06 21:32:00,
2013-05-06 14:42:00,51.0,51.0,-100.00,South,186,9.0,18.0,99,-99.99,,,-99.99,,2013-05-06 21:42:00,
2013-05-06 14:53:00,51.0,51.0,-100.00,South,191,9.0,17.0,99,-99.99,,,-99.99,,2013-05-06 21:53:00,
2013-05-06 15:02:00,51.0,51.0,-100.00,South,191,9.0,17.0,99,-99.99,,,-99.99,,2013-05-06 22:02:00,
2013-05-06 15:12:00,51.0,51.0,-100.00,South,181,9.0,16.0,99,-99.99,,,-99.99,,2013-05-06 22:12:00,
2013-05-06 15:22:00,51.0,51.0,-100.00,SSW,195,9.0,18.0,99,-99.99,,,-99.99,,2013-05-06 22:22:00,
2013-05-06 15:33:00,49.0,49.0,-100.00,SW,236,9.0,15.0,99,-99.99,,,-99.99,,2013-05-06 22:33:00,
2013-05-06 15:45:00,50.0,50.0,-100.00,SW,218,7.0,14.0,99,-99.99,,,-99.99,,2013-05-06 22:45:00,
2013-05-06 15:52:00,50.0,50.0,-100.00,SW,223,5.0,11.0,99,-99.99,,,-99.99,,2013-05-06 22:52:00,
2013-05-06 16:02:00,50.0,50.0,-100.00,SW,223,5.0,11.0,99,-99.99,,,-99.99,,2013-05-06 23:02:00,
2013-05-06 16:11:00,50.0,49.0,-100.00,SW,227,6.0,10.0,97,-99.99,,,-99.99,,2013-05-06 23:11:00,
2013-05-06 16:22:00,50.0,49.0,-100.00,SW,230,4.0,10.0,97,-99.99,,,-99.99,,2013-05-06 23:22:00,
2013-05-06 16:31:00,50.0,49.0,-100.00,WSW,238,4.0,10.0,96,-99.99,,,-99.99,,2013-05-06 23:31:00,
2013-05-06 16:41:00,50.0,49.0,-100.00,SW,228,5.0,11.0,95,-99.99,,,-99.99,,2013-05-06 23:41:00,
2013-05-06 16:52:00,50.0,48.0,-100.00,SW,225,5.0,11.0,93,-99.99,,,-99.99,,2013-05-06 23:52:00,
2013-05-06 17:01:00,51.0,49.0,-100.00,WSW,238,6.0,10.0,93,-99.99,,,-99.99,,2013-05-07 00:01:00,
2013-05-06 17:11:00,51.0,49.0,-100.00,WSW,237,5.0,8.0,93,-99.99,,,-99.99,,2013-05-07 00:11:00,
2013-05-06 17:21:00,51.0,49.0,-100.00,SW,230,4.0,10.0,93,-99.99,,,-99.99,,2013-05-07 00:21:00,
2013-05-06 17:31:00,51.0,48.0,-100.00,SW,221,4.0,12.0,91,-99.99,,,-99.99,,2013-05-07 00:31:00,
2013-05-06 17:41:00,51.0,48.0,-100.00,SW,221,4.0,12.0,91,-99.99,,,-99.99,,2013-05-07 00:41:00,
2013-05-06 17:51:00,51.0,48.0,-100.00,SW,222,6.0,11.0,89,-99.99,,,-99.99,,2013-05-07 00:51:00,
2013-05-06 18:01:00,51.0,48.0,-100.00,SW,222,6.0,11.0,89,-99.99,,,-99.99,,2013-05-07 01:01:00,
2013-05-06 18:11:00,51.0,49.0,-100.00,SW,221,4.0,11.0,92,-99.99,,,-99.99,,2013-05-07 01:11:00,
2013-05-06 18:21:00,51.0,48.0,-100.00,WSW,247,5.0,9.0,91,-99.99,,,-99.99,,2013-05-07 01:21:00,
2013-05-06 18:31:00,51.0,48.0,-100.00,WSW,255,4.0,10.0,91,-99.99,,,-99.99,,2013-05-07 01:31:00,
2013-05-06 18:42:00,50.0,48.0,-100.00,WSW,238,4.0,8.0,92,-99.99,,,-99.99,,2013-05-07 01:42:00,
2013-05-06 18:52:00,50.0,48.0,-100.00,WSW,255,4.0,7.0,94,-99.99,,,-99.99,,2013-05-07 01:52:00,
2013-05-06 19:02:00,50.0,48.0,-100.00,WSW,255,4.0,7.0,94,-99.99,,,-99.99,,2013-05-07 02:02:00,
2013-05-06 19:11:00,50.0,49.0,-100.00,SW,232,3.0,8.0,96,-99.99,,,-99.99,,2013-05-07 02:11:00,
2013-05-06 19:21:00,49.0,48.0,-100.00,SW,232,3.0,7.0,96,-99.99,,,-99.99,,2013-05-07 02:21:00,
2013-05-06 19:31:00,50.0,49.0,-100.00,SW,228,3.0,6.0,95,-99.99,,,-99.99,,2013-05-07 02:31:00,
2013-05-06 19:41:00,50.0,49.0,-100.00,SW,226,3.0,5.0,95,-99.99,,,-99.99,,2013-05-07 02:41:00,
2013-05-06 19:51:00,49.0,47.0,-100.00,SSW,208,3.0,8.0,94,-99.99,,,-99.99,,2013-05-07 02:51:00,
2013-05-06 20:01:00,49.0,48.0,-100.00,SSW,194,4.0,6.0,95,-99.99,,,-99.99,,2013-05-07 03:01:00,
2013-05-06 20:11:00,49.0,48.0,-100.00,SSW,201,3.0,7.0,95,-99.99,,,-99.99,,2013-05-07 03:11:00,
2013-05-06 20:21:00,49.0,47.0,-100.00,SSW,211,4.0,8.0,94,-99.99,,,-99.99,,2013-05-07 03:21:00,
2013-05-06 20:32:00,49.0,47.0,-100.00,SW,221,5.0,6.0,94,-99.99,,,-99.99,,2013-05-07 03:32:00,
2013-05-06 20:42:00,49.0,47.0,-100.00,SW,233,3.0,5.0,94,-99.99,,,-99.99,,2013-05-07 03:42:00,
2013-05-06 20:53:00,49.0,48.0,-100.00,SW,224,3.0,5.0,95,-99.99,,,-99.99,,2013-05-07 03:53:00,
2013-05-06 21:02:00,49.0,48.0,-100.00,SW,228,3.0,6.0,95,-99.99,,,-99.99,,2013-05-07 04:02:00,
2013-05-06 21:12:00,49.0,48.0,-100.00,SW,235,3.0,4.0,96,-99.99,,,-99.99,,2013-05-07 04:12:00,
2013-05-06 21:23:00,49.0,48.0,-100.00,WSW,254,2.0,5.0,96,-99.99,,,-99.99,,2013-05-07 04:23:00,
2013-05-06 21:33:00,49.0,48.0,-100.00,WSW,239,3.0,7.0,97,-99.99,,,-99.99,,2013-05-07 04:33:00,
2013-05-06 21:42:00,49.0,48.0,-100.00,SW,214,4.0,7.0,97,-99.99,,,-99.99,,2013-05-07 04:42:00,
2013-05-06 21:52:00,49.0,48.0,-100.00,SSW,206,4.0,8.0,98,-99.99,,,-99.99,,2013-05-07 04:52:00,
2013-05-06 22:02:00,49.0,48.0,-100.00,SW,224,4.0,7.0,98,-99.99,,,-99.99,,2013-05-07 05:02:00,
2013-05-06 22:12:00,49.0,48.0,-100.00,SW,221,3.0,5.0,98,-99.99,,,-99.99,,2013-05-07 05:12:00,
2013-05-06 22:22:00,48.0,47.0,-100.00,WSW,242,2.0,7.0,98,-99.99,,,-99.99,,2013-05-07 05:22:00,
2013-05-06 22:32:00,48.0,47.0,-100.00,SW,231,3.0,6.0,96,-99.99,,,-99.99,,2013-05-07 05:32:00,
2013-05-06 22:42:00,48.0,46.0,-100.00,SW,229,4.0,7.0,94,-99.99,,,-99.99,,2013-05-07 05:42:00,
2013-05-06 22:51:00,48.0,46.0,-100.00,SSW,198,4.0,7.0,93,-99.99,,,-99.99,,2013-05-07 05:51:00,
2013-05-06 23:02:00,48.0,46.0,-100.00,South,191,5.0,8.0,94,-99.99,,,-99.99,,2013-05-07 06:02:00,
2013-05-06 23:12:00,48.0,46.0,-100.00,SSW,199,5.0,7.0,94,-99.99,,,-99.99,,2013-05-07 06:12:00,
2013-05-06 23:21:00,48.0,47.0,-100.00,SSW,212,4.0,7.0,95,-99.99,,,-99.99,,2013-05-07 06:21:00,
2013-05-06 23:32:00,48.0,46.0,-100.00,SSW,208,4.0,5.0,94,-99.99,,,-99.99,,2013-05-07 06:32:00,
2013-05-06 23:41:00,48.0,46.0,-100.00,SSW,212,3.0,4.0,94,-99.99,,,-99.99,,2013-05-07 06:41:00,
2013-05-06 23:52:00,48.0,47.0,-100.00,SSW,204,3.0,5.0,95,-99.99,,,-99.99,,2013-05-07 06:52:00,